Fryeburg, ME

5:05 AM EDT on September 25, 2017 (GMT -0400)
Eastern Slopes Regional

Weather History for KIZG - January, 2014

Change the Weather History Date:

Wednesday, January 22, 2014

  Actual Average Record
Temperature  
Mean Temperature 6 °F -  
Max Temperature 17 °F 25 °F 48 °F (1997)
Min Temperature -9 °F 2 °F -27 °F (2005)
Degree Days  
Heating Degree Days 58    
Moisture  
Dew Point -10 °F    
Average Humidity 50    
Maximum Humidity 79    
Minimum Humidity 33    
Precipitation  
Precipitation 0.00 in - - ()
Sea Level Pressure  
Sea Level Pressure 29.81 in    
Wind  
Wind Speed 6 mph (NNW)    
Max Wind Speed 15 mph    
Max Gust Speed 22 mph    
Visibility 10 miles    
Events      
Averages and records for this station are not official NWS values.
T = Trace of Precipitation, MM = Missing Value Source: NWS Daily Summary

Daily Weather History Graph

Daily Weather History Graph

Search for Another Location

Airport or City:

Trip Planner

Search our weather history database for the weather conditions in past years. The results will help you decide how hot, cold, wet, or windy it might be!

Date:

Astronomy

Jan. 22, 2014 Rise Set
Actual Time 7:10 AM EST 4:40 PM EST
Civil Twilight 6:39 AM EST 5:12 PM EST
Nautical Twilight 6:03 AM EST 5:47 PM EST
Astronomical Twilight 5:29 AM EST 6:21 PM EST
Moon 11:25 PM EST (1/22) 9:56 AM EST (1/22)
Length of Visible Light 10h 32m
Length of Day
9h 29m
Waning Gibbous, 65% of the Moon is Illuminated
Jan 22
Waning Gibbous
Jan 24
Last Quarter
Jan 30
New
Feb 6
First Quarter
Feb 14
Full

Hourly Weather History & Observations

Time (EST) Temp. Windchill Dew Point Humidity Pressure Visibility Wind Dir Wind Speed Gust Speed Precip Events Conditions
12:54 AM 5.0 °F -6.9 °F -9.9 °F 50% 29.94 in 10.0 mi NNE 6.9 mph - N/A   Clear
1:54 AM 3.9 °F -8.2 °F -11.0 °F 50% 29.92 in 10.0 mi North 6.9 mph - N/A   Clear
2:54 AM 3.0 °F -6.4 °F -11.0 °F 52% 29.91 in 10.0 mi NNE 4.6 mph - N/A   Clear
3:54 AM 1.9 °F -5.6 °F -11.0 °F 55% 29.87 in 10.0 mi North 3.5 mph - N/A   Clear
4:54 AM 1.9 °F - -11.9 °F 52% 29.88 in 10.0 mi Calm Calm - N/A   Mostly Cloudy
5:54 AM 1.9 °F -7.6 °F -11.9 °F 52% 29.87 in 10.0 mi NNW 4.6 mph - N/A   Clear
6:54 AM 1.0 °F -6.7 °F -11.9 °F 55% 29.86 in 10.0 mi NNW 3.5 mph - N/A   Clear
7:54 AM 1.0 °F -6.7 °F -11.0 °F 57% 29.87 in 10.0 mi NNW 3.5 mph - N/A   Clear
8:54 AM 3.0 °F -6.4 °F -11.0 °F 52% 29.84 in 10.0 mi NNW 4.6 mph - N/A   Clear
9:54 AM 5.0 °F -4.1 °F -11.0 °F 48% 29.81 in 10.0 mi NNW 4.6 mph - N/A   Clear
10:54 AM 10.9 °F -1.8 °F -9.0 °F 40% 29.76 in 10.0 mi North 9.2 mph - N/A   Clear
11:54 AM 14.0 °F 2.9 °F -9.0 °F 35% 29.69 in 10.0 mi NNE 8.1 mph - N/A   Clear
12:54 PM 17.1 °F 5.8 °F -8.0 °F 33% 29.67 in 10.0 mi North 9.2 mph - N/A   Clear
1:54 PM 15.1 °F -0.1 °F -9.0 °F 34% 29.66 in 10.0 mi NNW 15.0 mph 20.7 mph N/A   Clear
2:54 PM 15.1 °F 1.1 °F -9.0 °F 34% 29.68 in 10.0 mi North 12.7 mph 21.9 mph N/A   Clear
3:54 PM 15.1 °F 2.5 °F -8.0 °F 36% 29.71 in 10.0 mi North 10.4 mph - N/A   Clear
4:54 PM 12.9 °F -0.9 °F -9.0 °F 37% 29.73 in 10.0 mi North 11.5 mph - N/A   Clear
5:54 PM 10.0 °F -0.9 °F -8.0 °F 44% 29.75 in 10.0 mi NW 6.9 mph - N/A   Clear
6:54 PM 6.1 °F -2.8 °F -8.0 °F 53% 29.77 in 10.0 mi NNW 4.6 mph - N/A   Clear
7:54 PM 6.1 °F -2.8 °F -8.0 °F 53% 29.79 in 10.0 mi NNW 4.6 mph - N/A   Clear
8:54 PM -2.0 °F -12.2 °F -9.9 °F 69% 29.81 in 10.0 mi WSW 4.6 mph - N/A   Clear
9:54 PM -0.9 °F - -9.9 °F 66% 29.83 in 10.0 mi Calm Calm - N/A   Clear
10:54 PM -4.0 °F - -11.0 °F 72% 29.85 in 10.0 mi Calm Calm - N/A   Clear
11:54 PM -9.0 °F - -14.1 °F 79% 29.86 in 10.0 mi Calm Calm - N/A   Clear